Flag for U.S.A. Weather past 2 weeks in El Monte, California, U.S.A.

Now
70 °F

Overcast.


Feels Like: 74 °F
Forecast: 64 / 80 °F
Wind: No wind

Location: Fullerton Municipal Airport

Current Time: Jul 5, 2015 at 11:54:51 AM

Latest Report: Jul 5, 2015 at 10:53 AM


Visibility: 10 mi

Pressure: 29.98 "Hg

Humidity: 68%

Dew point: 59 °F

Location of El MonteLocation

Historic Weather in El Monte — Graph

°F

El Monte temperature yesterday

Maximum temperature yesterday: 78 °F (at 1:53 PM)
Minimum temperature yesterday: 65 °F (at 1:53 AM)
Average temperature yesterday: 70 °F

Past Weeks' High & Low Weather Summary

 TemperatureHumidityPressure
High94 °F (Jun 28, 2:53 PM)90% (Jun 22, 5:53 AM)30.01 "Hg (Jun 22, 5:53 AM)
Low64 °F (Jun 27, 5:53 AM)30% (Jun 30, 7:53 PM)29.77 "Hg (Jun 30, 7:53 PM)
Average74 °F64%29.90 "Hg
* Reported Jun 20 10:53 AM — Jul 5 10:53 AM, El Monte, Weather by CustomWeather, © 2015

Note: Actual official high and low records may vary slightly from our data, if they occured in-between our weather recording intervals... More about our weather records

Advertising

El Monte weather history for previous 24 hours

 ConditionsComfort  
Time TempWeatherWind HumidityBarometerVisibility
10:53 AM
Sun, Jul 5
70 °FOvercast.No wind68%29.98 "Hg10 mi
9:53 AM69 °FOvercast.5 mph70%29.97 "Hg10 mi
8:53 AM67 °FOvercast.3 mph76%29.98 "Hg10 mi
7:53 AM67 °FOvercast.No wind76%29.96 "Hg10 mi
6:53 AM67 °FOvercast.3 mph76%29.95 "Hg10 mi
5:53 AM66 °FOvercast.3 mph78%29.93 "Hg10 mi
5:00 AM67 °FOvercast.No wind79%29.93 "Hg10 mi
3:53 AM67 °FOvercast.5 mph79%29.92 "Hg10 mi
2:53 AM67 °FOvercast.No wind79%29.92 "Hg8 mi
1:53 AM67 °FOvercast.5 mph79%29.92 "Hg7 mi
12:53 AM68 °FOvercast.3 mph76%29.92 "Hg3 mi
11:53 PM
Sat, Jul 4
67 °FOvercast.No wind76%29.93 "Hg3 mi
10:53 PM67 °FClear.No wind76%29.93 "Hg4 mi
9:53 PM68 °FClear.3 mph73%29.91 "Hg4 mi
8:53 PM69 °FSunny.5 mph70%29.89 "Hg8 mi
7:53 PM72 °FSunny.5 mph66%29.87 "Hg10 mi
6:53 PM74 °FSunny.8 mph62%29.84 "Hg10 mi
5:53 PM75 °FSunny.8 mph60%29.83 "Hg10 mi
4:53 PM76 °FSunny.5 mph58%29.84 "Hg10 mi
3:53 PM76 °FSunny.5 mph58%29.86 "Hg10 mi
2:53 PM77 °FSunny.8 mph54%29.87 "Hg10 mi
1:53 PM78 °FSunny.N/A52%29.88 "Hg10 mi
12:53 PM77 °FSunny.7 mph54%29.89 "Hg10 mi
11:53 AM74 °FSunny.6 mph60%29.89 "Hg10 mi
Weather by CustomWeather, © 2015

See weather overviewHow to use our weather pages